Location: Newark
(46.9000°N, 28.3500°E)
Time: 20:17:52
(UTC+00:00)

Explorer 7 - Pass Details

Date: 02 September 2019
Orbit: 485 x 680 km, 50.3° (Epoch: 22 October)

Event Time Altitude Azimuth Distance (km) Brightness Sun altitude
Rises 08:45:03 0° 292° (WNW) 3,004 10.3 47.4°
Reaches altitude 10° 08:47:28 10° 290° (WNW) 2,069 9.5 47.6°
Maximum altitude 08:52:13 72° 208° (SSW) 668 8.4 48.0°
Drops below altitude 10° 08:56:42 10° 124° (ESE) 1,951 10.4 48.3°
Sets 08:58:55 0° 122° (ESE) 2,818 11.0 48.5°
